SCP
0 0 0 0 0 0 0 0 0 0 0 0 0 0 0 0 0 0 0 0 0 0 0 0 0 0 0 0 0 0 0 0 0 1 2 1 1 1 0 1 1 0 1 1
0 0 0 0 0 0 0 0 0 0 0 0 0 0 0 0 0 0 0 0 0 0 0 0 0 0 0 0 0 0 0 0 1 1 1 1 1 1 1 1 0 0 0 0
0 0 0 0 0 0 0 0 0 0 0 0 0 0 0 0 0 0 0 0 0 0 0 0 0 0 0 0 0 0 0 1 1 1 1 1 0 0 0 0 0 0 0 0
0 0 0 0 0 0 0 0 0 0 0 0 0 0 0 0 0 0 0 0 0 0 0 0 0 0 0 0 0 0 0 0 0 0 0 0 0 -0 0 0 0 0 0 0
0 0 0 0 0 0 0 0 0 0 0 0 0 0 0 0 0 0 0 0 0 0 -0 0 0 0 0 0 0 0 0 0 0 0 0 0 0 0 0 0 0 0 0 0
0 0 0 0 0 0 0 0 0 0 0 0 0 0 0 1 0 0 0 0 0 0 0 0 0 0 0 0 0 0 -0 -0 0 0 0 0 0 0 -0 0 0 0 0 0
0 0 0 0 0 0 0 0 0 0 0 0 0 0 0 0 0 0 0 0 0 0 0 0 0 0 0 0 0 0 0 0 0 0 0 0 0 0 -0 0 0 0 0 0
0 0 0 0 0 0 0 0 0 0 0 0 0 0 0 0 0 0 0 0 0 0 0 0 0 0 0 -0 0 0 0 0 0 0 0 0 0 0 0 0 0 0 0 0
0 0 0 0 0 0 0 0 0 0 0 0 0 0 0 0 0 0 0 -0 0 0 -0 0 0 0 0 -0 0 0 0 0 0 0 0 0 0 0 0 0 0 0 0 0
0 0 0 0 0 0 0 0 0 0 0 0 0 0 0 0 0 0 0 -0 -0 -0 -0 -0 0 0 0 0 0 0 0 0 0 0 0 0 0 0 0 0 0 0 0 0
0 0 0 -0 0 0 0 0 0 0 0 0 0 0 0 0 0 0 0 -0 0 -0 -0 -0 0 -0 -0 0 0 0 0 0 0 0 0 0 0 0 0 0 0 0 0 0
0 0 0 -0 0 0 0 0 0 0 0 0 0 0 0 0 0 0 0 0 0 -0 0 -0 0 0 0 0 0 0 0 0 0 0 0 0 0 0 0 0 0 0 0 0
0 0 0 -0 0 0 0 0 0 0 0 0 0 0 0 0 0 0 0 0 -0 -0 0 0 0 0 0 0 0 0 0 0 0 0 0 0 0 0 0 0 0 0 0 0
0 0 -0 -0 0 0 0 0 0 0 0 0 0 0 0 0 0 0 0 -0 -0 -0 0 0 0 0 0 -0 0 0 0 0 0 0 0 0 0 0 0 0 0 0 0 0
0 0 0 0 0 0 0 0 0 0 0 0 0 0 0 0 0 0 0 0 0 -0 0 0 -0 0 0 -0 0 0 0 0 0 0 0 0 0 0 0 0 0 0 0 0
0 0 0 0 0 0 0 0 0 0 0 0 0 0 0 0 0 0 0 0 -0 0 0 0 0 0 -0 -0 0 0 0 0 -0 0 0 0 0 0 0 0 0 0 0 0
0 0 0 0 0 0 0 0 0 0 0 0 0 0 0 0 0 0 0 0 0 -0 0 0 0 0 0 -0 -0 0 0 0 0 0 0 0 0 0 0 0 0 0 0 0
0 0 0 0 0 0 0 0 0 0 0 0 0 0 0 0 0 0 0 0 0 -0 0 0 0 0 -0 -0 -0 -0 -0 -0 0 0 0 0 0 0 0 0 0 0 0 0
0 0 0 0 0 0 0 0 0 0 0 0 0 0 0 0 0 0 0 0 0 0 0 0 0 0 0 0 0 0 -0 0 0 0 0 0 0 0 0 0 0 0 0 0
0 0 0 0 0 0 0 0 0 0 0 0 0 0 0 0 -0 0 0 0 0 0 0 0 0 0 0 0 0 0 0 0 0 0 0 0 0 0 0 0 0 0 0 0
0 0 0 0 0 0 0 0 0 0 0 0 0 0 0 0 0 0 0 0 0 0 0 0 0 0 -0 0 -0 0 0 0 0 0 0 0 0 0 0 0 0 0 0 0
0 0 -0 0 -0 0 0 0 0 0 0 0 0 0 -0 0 0 0 0 0 0 0 0 0 0 0 0 0 0 0 0 0 0 0 0 0 0 0 0 0 0 0 0 0
0 0 -0 -0 0 -0 -0 -0 -0 -0 -0 -0 0 0 0 0 0 0 0 0 0 0 0 0 0 0 0 0 0 0 0 0 0 0 0 0 0 0 0 0 0 0 0 0
-0 -0 -0 -0 -0 -0 -0 0 -0 -0 -0 -0 -0 -0 0 0 0 0 0 0 0 0 0 0 0 0 0 0 0 0 0 0 0 0 0 0 0 0 0 0 0 0 0 0
-0 -0 -0 -0 -0 -0 -0 -0 -0 -0 -0 -0 0 0 0 0 0 0 0 0 0 0 0 0 0 0 0 0 0 0 0 0 0 0 0 0 0 0 0 0 0 0 0 0
-0 -0 -0 -0 -0 -0 -0 0 0 0 0 0 0 0 0 0 0 0 0 0 0 0 0 0 0 0 0 0 0 0 0 0 0 0 0 0 0 0 0 0 0 0 0 0
-0 0 0 0 0 0 -0 -0 0 0 0 0 0 0 0 0 0 0 0 0 0 0 0 0 0 0 0 0 0 0 0 0 0 0 0 0 0 0 0 0 0 0 0 0
Wind_Speed_500mb
25 27 32 32 36 32 38 39 38 38 39 34 28 19 19 17 21 30 38 48 55 54 50 46 41 31 31 34 30 29 33 37 36 27 30 21 21 19 24 28 38 57 56 53
30 33 33 39 41 42 44 42 39 37 32 15 19 25 20 20 24 29 39 47 53 48 40 38 35 27 30 28 26 27 32 36 29 26 21 21 22 18 17 24 26 31 36 43
28 13 18 26 37 35 28 23 23 23 25 26 24 22 17 19 20 23 27 38 42 46 37 36 23 17 17 16 12 10 15 13 26 23 17 20 20 24 21 25 22 20 30 36
18 13 25 7 5 4 12 17 11 19 11 12 16 19 17 11 15 23 25 34 33 40 47 26 7 5 10 13 7 6 7 6 17 18 14 19 18 20 28 28 28 32 36 33
14 19 22 23 17 10 11 20 5 2 9 18 21 28 22 9 7 13 17 17 24 37 38 35 26 20 13 12 13 11 1 4 4 11 13 17 22 17 13 19 22 20 21 28
15 18 21 13 12 2 4 17 10 10 15 22 26 20 9 5 7 10 6 12 20 24 26 26 26 22 21 21 21 23 24 13 12 10 13 16 13 5 6 7 7 11 14 16
22 21 17 12 9 6 15 8 12 11 15 22 19 25 23 13 10 5 5 8 15 19 26 27 23 19 22 24 23 22 23 20 15 10 10 3 5 4 13 12 19 16 9 2
17 20 25 16 9 12 19 24 19 16 18 23 26 23 20 17 12 8 3 4 8 16 17 23 28 26 25 17 15 16 13 12 17 16 12 8 12 11 8 10 14 12 7 4
9 5 10 4 8 20 23 27 22 19 18 22 23 22 15 14 19 11 4 6 7 15 14 15 23 27 25 24 14 14 11 9 13 16 18 20 18 17 17 18 21 15 16 14
19 25 13 9 23 10 14 18 19 18 18 20 21 19 17 13 22 16 9 10 6 14 10 13 24 23 26 31 14 14 15 12 11 15 15 13 10 13 17 17 18 12 12 14
24 34 37 43 14 12 21 23 22 18 17 18 17 18 15 8 18 16 15 8 5 13 9 11 8 9 20 28 14 11 14 12 11 12 11 10 10 10 13 12 16 13 16 15
23 31 27 37 37 28 34 36 28 19 16 11 8 8 5 1 4 16 13 6 4 7 8 7 9 12 21 22 15 10 12 12 14 16 14 14 12 8 6 10 11 13 13 13
39 28 35 43 37 37 34 25 20 16 13 7 3 2 1 3 5 4 7 5 2 0 6 7 11 14 23 21 13 13 14 16 16 17 17 17 15 10 2 2 4 4 2 3
30 38 42 37 38 28 25 29 17 16 14 10 8 7 6 5 5 8 8 3 5 3 4 6 11 12 22 16 13 13 15 17 14 12 11 10 9 9 9 7 5 9 14 12
22 16 25 32 32 35 30 19 19 20 17 15 14 10 11 9 7 9 7 7 4 7 9 9 7 11 18 17 14 12 11 10 10 10 10 12 12 12 10 9 7 8 11 14
15 23 20 17 16 16 16 19 23 20 17 16 16 15 14 12 11 8 9 6 1 9 10 5 9 13 16 16 14 11 12 14 15 12 12 11 13 14 14 13 12 10 8 5
18 18 13 15 12 11 13 20 23 20 19 17 17 15 12 14 12 11 6 6 1 5 5 6 5 7 9 11 9 11 11 12 18 17 18 20 20 20 20 18 18 17 16 15
13 11 11 14 16 14 13 18 19 20 20 19 17 12 13 15 14 11 1 3 2 1 3 2 3 3 2 5 9 8 11 12 14 17 18 20 22 20 22 24 25 26 24 24
11 13 13 14 14 12 12 15 17 15 15 17 14 12 18 12 14 16 8 7 2 1 5 10 13 13 5 7 5 8 13 17 20 21 22 24 24 22 23 24 24 26 29 30
3 9 15 13 9 11 13 13 13 13 11 10 11 17 18 17 14 17 16 11 9 10 15 15 7 5 5 7 12 21 18 21 22 23 22 24 21 24 26 27 27 26 26 28
6 7 5 5 1 7 10 14 17 19 14 20 23 24 26 25 16 14 10 8 9 12 19 19 11 10 15 11 11 16 18 20 21 23 25 26 27 28 28 29 29 29 29 29
6 8 19 14 9 12 19 20 26 25 26 28 11 19 22 19 15 19 22 19 14 16 10 12 10 10 11 12 14 17 19 21 23 25 26 28 29 30 31 31 31 32 32 31
8 9 14 19 17 22 27 26 21 21 19 12 12 17 22 19 13 15 17 17 13 10 13 14 16 18 20 15 15 17 19 21 21 22 24 26 28 28 30 31 33 32 34 29
20 21 23 23 19 19 21 25 24 21 20 18 22 32 19 20 22 20 17 13 12 15 17 18 18 18 15 14 15 17 19 21 23 25 28 30 30 31 32 32 30 30 32 32
27 26 26 24 26 33 34 30 29 33 33 29 29 22 19 20 17 15 14 11 11 11 14 18 21 22 19 20 21 23 23 24 27 30 28 29 32 33 33 34 35 38 40 45
26 30 30 29 30 31 32 31 36 32 30 26 22 21 21 16 14 12 10 10 11 14 13 16 21 20 20 22 22 24 25 26 28 29 32 31 32 34 35 36 38 39 41 44
29 27 23 23 23 19 19 18 20 24 21 19 21 18 16 11 12 10 10 9 10 13 15 16 18 24 26 25 26 27 27 28 32 35 35 35 36 38 40 41 43 44 45 45
Wind_Direction_500mb
268 282 280 272 268 270 270 268 272 290 292 302 326 346 329 329 328 328 329 325 318 310 303 296 285 277 283 288 279 267 262 265 259 229 222 225 218 229 238 240 248 251 248 243
275 273 266 269 265 265 266 271 279 277 277 13 338 303 332 322 326 333 336 337 333 320 309 299 293 286 286 288 288 287 281 261 223 190 205 209 217 256 253 254 262 256 253 246
278 298 294 260 251 254 263 267 277 288 336 335 323 327 316 308 322 325 337 348 353 355 328 308 304 295 287 292 308 330 331 206 188 197 211 248 256 276 253 247 257 249 240 238
265 277 254 66 95 328 280 288 276 281 333 329 316 310 294 284 311 324 328 334 341 356 10 354 24 28 7 347 7 321 9 67 182 190 217 238 285 285 240 245 251 256 250 251
253 250 286 268 183 230 255 297 28 309 327 324 326 307 243 239 316 342 343 2 10 20 8 8 27 25 357 351 346 66 21 355 95 186 186 211 280 257 231 248 248 255 242 240
250 271 277 66 121 133 306 253 116 342 331 333 326 305 38 237 281 316 355 349 20 31 9 23 21 24 31 38 51 31 49 56 96 126 167 220 213 219 176 172 187 210 235 243
239 252 263 67 108 147 244 40 344 323 318 325 320 313 301 270 247 272 310 340 11 23 14 30 32 31 32 35 48 45 40 41 56 72 96 172 174 139 116 108 85 89 100 204
235 257 249 113 161 259 354 321 297 296 305 315 315 304 282 260 243 250 279 32 15 31 28 22 34 30 21 23 24 18 9 42 63 62 70 57 69 77 89 97 94 59 45 344
247 9 95 320 322 315 299 285 285 284 296 308 308 304 279 264 214 205 155 49 41 27 4 14 27 28 19 17 11 11 19 43 61 58 55 56 60 63 56 62 65 63 82 78
258 241 243 274 311 291 328 312 289 284 294 306 309 315 287 265 200 205 207 148 312 327 3 31 27 7 3 360 18 27 34 48 64 62 54 78 80 72 71 62 72 70 73 75
249 260 281 278 285 297 318 313 307 273 282 295 306 311 304 250 216 227 220 200 262 301 347 17 30 356 359 5 19 31 41 41 42 36 30 22 43 92 77 81 98 85 77 75
255 268 280 278 290 278 308 304 293 267 273 279 295 318 310 343 213 224 197 170 156 303 352 9 35 15 0 10 43 44 41 47 58 56 45 35 40 36 96 97 82 79 76 86
260 279 285 284 276 273 292 308 277 241 249 255 175 314 249 209 247 237 191 185 216 1 50 38 20 356 357 7 34 74 57 71 61 60 53 51 53 66 106 317 337 332 321 315
261 285 279 268 267 263 269 297 261 230 227 208 176 162 197 254 227 181 197 195 227 291 325 356 359 353 358 16 44 76 71 66 57 45 34 35 38 39 43 39 4 325 296 291
254 255 277 279 272 263 268 260 217 214 214 199 195 199 198 194 172 173 189 228 202 287 325 351 17 5 14 33 57 66 60 44 37 32 25 39 41 36 27 11 350 335 310 320
272 281 291 278 270 256 238 214 212 213 213 205 202 204 206 199 192 208 189 219 279 350 350 23 46 33 31 41 52 37 24 24 33 23 14 6 359 356 347 347 334 322 325 315
283 282 296 283 308 261 216 213 216 221 218 213 211 209 216 205 203 202 218 230 5 349 30 46 43 29 24 23 17 12 8 352 4 1 348 344 341 332 324 317 313 312 306 285
262 263 287 290 285 270 241 219 221 223 220 218 216 215 207 196 203 213 127 201 232 154 38 330 256 244 2 15 23 7 359 352 347 344 338 334 330 337 328 309 295 290 291 289
262 255 275 295 272 246 214 204 208 216 219 210 226 200 191 178 204 142 119 161 154 141 344 324 287 252 255 274 321 316 320 327 325 322 319 318 322 315 311 313 310 295 282 280
245 285 272 272 234 203 196 190 187 175 165 176 158 162 158 157 183 152 133 108 77 38 16 14 53 162 216 266 305 315 312 314 317 315 314 314 311 308 310 309 309 305 295 289
11 21 89 141 208 140 158 161 149 141 127 141 123 120 149 168 180 140 120 71 66 56 42 27 41 28 340 342 338 321 316 317 321 316 312 310 309 308 305 305 307 309 307 305
32 104 95 80 94 102 122 123 123 123 130 136 172 173 166 155 139 118 97 91 79 81 61 38 12 352 343 4 321 320 321 321 323 317 312 309 308 308 308 307 307 307 302 302
61 90 132 141 113 101 113 119 134 129 152 191 141 119 116 111 107 105 83 75 69 64 45 3 352 346 354 354 331 324 321 318 315 313 312 310 308 309 309 310 302 305 302 304
82 84 115 127 120 111 107 125 137 134 116 109 109 102 88 88 81 75 76 67 39 7 356 352 351 348 13 349 341 335 328 322 320 314 314 311 308 302 299 306 302 299 295 295
89 92 96 99 108 114 109 112 111 121 121 117 114 106 103 96 95 87 70 42 16 41 17 348 341 354 2 354 344 335 328 321 310 319 313 311 306 305 303 298 294 295 297 287
88 88 89 93 98 106 108 110 106 100 97 95 103 98 80 68 66 58 36 41 32 28 26 14 10 13 0 346 344 332 328 322 319 315 314 312 305 303 302 299 298 297 294 296
83 86 92 102 101 102 101 90 105 107 104 106 98 89 84 69 52 44 51 36 28 24 17 9 357 351 347 341 333 331 325 320 317 313 319 313 309 306 303 303 302 301 299 295
Wind_Speed_850mb
25 27 32 32 36 32 38 39 38 38 39 34 28 19 19 17 21 30 38 48 55 54 50 46 41 31 31 34 30 29 33 37 36 27 30 21 21 19 24 28 38 57 56 53
30 33 33 39 41 42 44 42 39 37 32 15 19 25 20 20 24 29 39 47 53 48 40 38 35 27 30 28 26 27 32 36 29 26 21 21 22 18 17 24 26 31 36 43
28 13 18 26 37 35 28 23 23 23 25 26 24 22 17 19 20 23 27 38 42 46 37 36 23 17 17 16 12 10 15 13 26 23 17 20 20 24 21 25 22 20 30 36
18 13 25 7 5 4 12 17 11 19 11 12 16 19 17 11 15 23 25 34 33 40 47 26 7 5 10 13 7 6 7 6 17 18 14 19 18 20 28 28 28 32 36 33
14 19 22 23 17 10 11 20 5 2 9 18 21 28 22 9 7 13 17 17 24 37 38 35 26 20 13 12 13 11 1 4 4 11 13 17 22 17 13 19 22 20 21 28
15 18 21 13 12 2 4 17 10 10 15 22 26 20 9 5 7 10 6 12 20 24 26 26 26 22 21 21 21 23 24 13 12 10 13 16 13 5 6 7 7 11 14 16
22 21 17 12 9 6 15 8 12 11 15 22 19 25 23 13 10 5 5 8 15 19 26 27 23 19 22 24 23 22 23 20 15 10 10 3 5 4 13 12 19 16 9 2
17 20 25 16 9 12 19 24 19 16 18 23 26 23 20 17 12 8 3 4 8 16 17 23 28 26 25 17 15 16 13 12 17 16 12 8 12 11 8 10 14 12 7 4
9 5 10 4 8 20 23 27 22 19 18 22 23 22 15 14 19 11 4 6 7 15 14 15 23 27 25 24 14 14 11 9 13 16 18 20 18 17 17 18 21 15 16 14
19 25 13 9 23 10 14 18 19 18 18 20 21 19 17 13 22 16 9 10 6 14 10 13 24 23 26 31 14 14 15 12 11 15 15 13 10 13 17 17 18 12 12 14
24 34 37 43 14 12 21 23 22 18 17 18 17 18 15 8 18 16 15 8 5 13 9 11 8 9 20 28 14 11 14 12 11 12 11 10 10 10 13 12 16 13 16 15
23 31 27 37 37 28 34 36 28 19 16 11 8 8 5 1 4 16 13 6 4 7 8 7 9 12 21 22 15 10 12 12 14 16 14 14 12 8 6 10 11 13 13 13
39 28 35 43 37 37 34 25 20 16 13 7 3 2 1 3 5 4 7 5 2 0 6 7 11 14 23 21 13 13 14 16 16 17 17 17 15 10 2 2 4 4 2 3
30 38 42 37 38 28 25 29 17 16 14 10 8 7 6 5 5 8 8 3 5 3 4 6 11 12 22 16 13 13 15 17 14 12 11 10 9 9 9 7 5 9 14 12
22 16 25 32 32 35 30 19 19 20 17 15 14 10 11 9 7 9 7 7 4 7 9 9 7 11 18 17 14 12 11 10 10 10 10 12 12 12 10 9 7 8 11 14
15 23 20 17 16 16 16 19 23 20 17 16 16 15 14 12 11 8 9 6 1 9 10 5 9 13 16 16 14 11 12 14 15 12 12 11 13 14 14 13 12 10 8 5
18 18 13 15 12 11 13 20 23 20 19 17 17 15 12 14 12 11 6 6 1 5 5 6 5 7 9 11 9 11 11 12 18 17 18 20 20 20 20 18 18 17 16 15
13 11 11 14 16 14 13 18 19 20 20 19 17 12 13 15 14 11 1 3 2 1 3 2 3 3 2 5 9 8 11 12 14 17 18 20 22 20 22 24 25 26 24 24
11 13 13 14 14 12 12 15 17 15 15 17 14 12 18 12 14 16 8 7 2 1 5 10 13 13 5 7 5 8 13 17 20 21 22 24 24 22 23 24 24 26 29 30
3 9 15 13 9 11 13 13 13 13 11 10 11 17 18 17 14 17 16 11 9 10 15 15 7 5 5 7 12 21 18 21 22 23 22 24 21 24 26 27 27 26 26 28
6 7 5 5 1 7 10 14 17 19 14 20 23 24 26 25 16 14 10 8 9 12 19 19 11 10 15 11 11 16 18 20 21 23 25 26 27 28 28 29 29 29 29 29
6 8 19 14 9 12 19 20 26 25 26 28 11 19 22 19 15 19 22 19 14 16 10 12 10 10 11 12 14 17 19 21 23 25 26 28 29 30 31 31 31 32 32 31
8 9 14 19 17 22 27 26 21 21 19 12 12 17 22 19 13 15 17 17 13 10 13 14 16 18 20 15 15 17 19 21 21 22 24 26 28 28 30 31 33 32 34 29
20 21 23 23 19 19 21 25 24 21 20 18 22 32 19 20 22 20 17 13 12 15 17 18 18 18 15 14 15 17 19 21 23 25 28 30 30 31 32 32 30 30 32 32
27 26 26 24 26 33 34 30 29 33 33 29 29 22 19 20 17 15 14 11 11 11 14 18 21 22 19 20 21 23 23 24 27 30 28 29 32 33 33 34 35 38 40 45
26 30 30 29 30 31 32 31 36 32 30 26 22 21 21 16 14 12 10 10 11 14 13 16 21 20 20 22 22 24 25 26 28 29 32 31 32 34 35 36 38 39 41 44
29 27 23 23 23 19 19 18 20 24 21 19 21 18 16 11 12 10 10 9 10 13 15 16 18 24 26 25 26 27 27 28 32 35 35 35 36 38 40 41 43 44 45 45
Wind_Direction_850mb
268 282 280 272 268 270 270 268 272 290 292 302 326 346 329 329 328 328 329 325 318 310 303 296 285 277 283 288 279 267 262 265 259 229 222 225 218 229 238 240 248 251 248 243
275 273 266 269 265 265 266 271 279 277 277 13 338 303 332 322 326 333 336 337 333 320 309 299 293 286 286 288 288 287 281 261 223 190 205 209 217 256 253 254 262 256 253 246
278 298 294 260 251 254 263 267 277 288 336 335 323 327 316 308 322 325 337 348 353 355 328 308 304 295 287 292 308 330 331 206 188 197 211 248 256 276 253 247 257 249 240 238
265 277 254 66 95 328 280 288 276 281 333 329 316 310 294 284 311 324 328 334 341 356 10 354 24 28 7 347 7 321 9 67 182 190 217 238 285 285 240 245 251 256 250 251
253 250 286 268 183 230 255 297 28 309 327 324 326 307 243 239 316 342 343 2 10 20 8 8 27 25 357 351 346 66 21 355 95 186 186 211 280 257 231 248 248 255 242 240
250 271 277 66 121 133 306 253 116 342 331 333 326 305 38 237 281 316 355 349 20 31 9 23 21 24 31 38 51 31 49 56 96 126 167 220 213 219 176 172 187 210 235 243
239 252 263 67 108 147 244 40 344 323 318 325 320 313 301 270 247 272 310 340 11 23 14 30 32 31 32 35 48 45 40 41 56 72 96 172 174 139 116 108 85 89 100 204
235 257 249 113 161 259 354 321 297 296 305 315 315 304 282 260 243 250 279 32 15 31 28 22 34 30 21 23 24 18 9 42 63 62 70 57 69 77 89 97 94 59 45 344
247 9 95 320 322 315 299 285 285 284 296 308 308 304 279 264 214 205 155 49 41 27 4 14 27 28 19 17 11 11 19 43 61 58 55 56 60 63 56 62 65 63 82 78
258 241 243 274 311 291 328 312 289 284 294 306 309 315 287 265 200 205 207 148 312 327 3 31 27 7 3 360 18 27 34 48 64 62 54 78 80 72 71 62 72 70 73 75
249 260 281 278 285 297 318 313 307 273 282 295 306 311 304 250 216 227 220 200 262 301 347 17 30 356 359 5 19 31 41 41 42 36 30 22 43 92 77 81 98 85 77 75
255 268 280 278 290 278 308 304 293 267 273 279 295 318 310 343 213 224 197 170 156 303 352 9 35 15 0 10 43 44 41 47 58 56 45 35 40 36 96 97 82 79 76 86
260 279 285 284 276 273 292 308 277 241 249 255 175 314 249 209 247 237 191 185 216 1 50 38 20 356 357 7 34 74 57 71 61 60 53 51 53 66 106 317 337 332 321 315
261 285 279 268 267 263 269 297 261 230 227 208 176 162 197 254 227 181 197 195 227 291 325 356 359 353 358 16 44 76 71 66 57 45 34 35 38 39 43 39 4 325 296 291
254 255 277 279 272 263 268 260 217 214 214 199 195 199 198 194 172 173 189 228 202 287 325 351 17 5 14 33 57 66 60 44 37 32 25 39 41 36 27 11 350 335 310 320
272 281 291 278 270 256 238 214 212 213 213 205 202 204 206 199 192 208 189 219 279 350 350 23 46 33 31 41 52 37 24 24 33 23 14 6 359 356 347 347 334 322 325 315
283 282 296 283 308 261 216 213 216 221 218 213 211 209 216 205 203 202 218 230 5 349 30 46 43 29 24 23 17 12 8 352 4 1 348 344 341 332 324 317 313 312 306 285
262 263 287 290 285 270 241 219 221 223 220 218 216 215 207 196 203 213 127 201 232 154 38 330 256 244 2 15 23 7 359 352 347 344 338 334 330 337 328 309 295 290 291 289
262 255 275 295 272 246 214 204 208 216 219 210 226 200 191 178 204 142 119 161 154 141 344 324 287 252 255 274 321 316 320 327 325 322 319 318 322 315 311 313 310 295 282 280
245 285 272 272 234 203 196 190 187 175 165 176 158 162 158 157 183 152 133 108 77 38 16 14 53 162 216 266 305 315 312 314 317 315 314 314 311 308 310 309 309 305 295 289
11 21 89 141 208 140 158 161 149 141 127 141 123 120 149 168 180 140 120 71 66 56 42 27 41 28 340 342 338 321 316 317 321 316 312 310 309 308 305 305 307 309 307 305
32 104 95 80 94 102 122 123 123 123 130 136 172 173 166 155 139 118 97 91 79 81 61 38 12 352 343 4 321 320 321 321 323 317 312 309 308 308 308 307 307 307 302 302
61 90 132 141 113 101 113 119 134 129 152 191 141 119 116 111 107 105 83 75 69 64 45 3 352 346 354 354 331 324 321 318 315 313 312 310 308 309 309 310 302 305 302 304
82 84 115 127 120 111 107 125 137 134 116 109 109 102 88 88 81 75 76 67 39 7 356 352 351 348 13 349 341 335 328 322 320 314 314 311 308 302 299 306 302 299 295 295
89 92 96 99 108 114 109 112 111 121 121 117 114 106 103 96 95 87 70 42 16 41 17 348 341 354 2 354 344 335 328 321 310 319 313 311 306 305 303 298 294 295 297 287
88 88 89 93 98 106 108 110 106 100 97 95 103 98 80 68 66 58 36 41 32 28 26 14 10 13 0 346 344 332 328 322 319 315 314 312 305 303 302 299 298 297 294 296
83 86 92 102 101 102 101 90 105 107 104 106 98 89 84 69 52 44 51 36 28 24 17 9 357 351 347 341 333 331 325 320 317 313 319 313 309 306 303 303 302 301 299 295